Wind_Speed
14 14 15 14 14 16 17 19 22 26 26 29 30 30 31 30 30 32 32 33 33 34 34 34 34 35 35 35 36 36 36 37 37 38 38 39 39 40 40 40 40 39 39 38
15 15 14 14 15 16 18 19 22 25 24 27 30 31 30 28 29 29 30 31 31 31 32 32 32 32 32 32 33 33 34 34 35 36 36 37 38 38 39 39 40 40 39 39
15 14 13 14 15 16 17 18 21 24 25 26 28 29 28 28 28 28 29 29 29 29 29 29 30 30 29 29 30 30 30 30 31 31 32 33 35 35 36 37 37 38 39 39
14 13 12 13 14 15 17 18 20 22 24 26 26 28 28 29 30 30 30 29 29 28 28 28 28 28 28 27 27 27 27 27 27 28 28 29 30 31 32 34 34 35 36 37
13 11 11 12 13 14 16 17 18 20 21 21 22 24 27 28 31 31 30 29 29 28 29 28 27 27 26 25 25 24 24 23 23 24 24 25 26 27 28 30 30 31 33 34
10 10 10 10 12 13 15 16 17 17 18 19 21 22 25 28 30 29 29 29 28 28 28 28 27 26 25 24 23 22 21 20 20 20 20 20 21 22 24 26 26 28 29 30
10 8 8 9 10 11 13 15 16 16 17 19 21 21 23 25 26 26 27 27 28 28 27 26 26 25 24 23 22 21 20 18 17 17 17 17 17 17 18 20 22 24 26 27
7 6 6 7 9 10 11 12 13 13 11 15 18 19 21 22 23 25 26 26 27 27 26 26 25 24 23 22 21 19 18 17 16 16 15 15 14 13 14 15 17 20 23 25
7 4 4 6 7 9 10 10 11 12 12 12 16 18 19 21 23 25 26 27 27 27 27 26 25 24 23 22 20 19 18 17 17 16 15 14 13 12 12 12 13 15 17 20
6 4 3 4 6 7 8 9 10 11 12 12 14 18 22 22 24 25 26 27 27 27 27 26 25 24 23 22 21 20 20 18 17 16 15 14 13 11 11 10 10 11 12 14
5 4 2 3 5 6 7 8 10 11 13 13 15 17 20 21 23 24 26 27 27 27 26 25 25 25 24 24 23 22 20 19 18 17 17 16 14 12 10 9 8 8 9 10
5 3 2 2 4 5 7 9 10 11 13 14 15 16 19 21 22 24 25 26 27 27 26 26 25 26 25 25 24 24 22 20 19 19 18 17 16 14 12 10 8 8 7 8
5 3 1 1 3 5 6 8 10 11 12 14 15 17 19 20 22 23 24 25 26 26 27 26 26 26 26 26 25 25 24 22 22 21 19 18 17 16 15 12 9 8 7 7
4 2 1 2 4 5 6 8 9 11 12 14 15 16 18 19 21 22 23 24 25 26 26 27 27 26 26 26 26 25 25 24 24 22 21 20 19 17 15 14 11 9 8 6
3 2 0 1 3 4 6 7 9 10 12 13 14 16 17 19 20 22 23 24 24 25 26 27 27 27 27 27 27 26 25 25 25 24 23 22 20 19 17 15 14 11 9 8
3 1 0 1 2 3 5 6 8 9 11 12 14 15 17 18 20 21 22 23 24 24 25 26 26 26 27 27 27 27 26 26 25 25 25 24 23 21 19 17 16 14 11 9
2 1 1 1 2 3 4 6 7 8 10 11 13 15 16 17 19 20 21 22 23 23 24 25 25 26 27 27 27 27 27 27 26 26 26 25 24 22 21 19 18 16 14 12
3 2 2 2 2 3 4 5 6 7 9 10 12 14 16 17 18 19 20 21 22 22 23 24 25 25 26 27 27 27 27 27 26 26 26 26 26 24 23 21 19 18 17 15
4 4 3 3 3 3 4 5 6 6 8 9 11 12 14 16 17 18 20 20 21 22 23 23 23 24 25 26 27 27 27 27 27 27 27 27 27 26 25 23 21 19 18 17
6 6 5 5 5 4 4 5 6 6 7 9 10 11 13 14 15 17 19 19 20 21 21 22 22 23 24 25 26 26 27 27 27 27 27 27 27 27 25 24 23 21 20 18
8 8 7 7 7 6 5 6 7 7 8 9 9 10 12 13 14 16 17 18 19 19 20 21 21 22 23 24 25 25 26 26 26 26 26 27 27 27 26 24 23 22 21 20
10 10 9 9 9 7 7 8 8 8 9 9 10 10 11 12 13 14 15 16 17 18 19 20 20 21 22 23 23 24 25 25 26 26 26 26 26 26 26 25 23 23 22 21
12 12 11 11 10 9 9 9 9 10 10 10 10 11 11 12 13 13 14 15 16 16 17 18 19 20 20 21 22 23 23 24 25 25 25 25 25 25 25 25 24 23 22 22
14 14 14 13 13 12 12 12 11 11 11 11 11 12 12 12 12 12 12 13 14 15 15 16 17 18 19 20 20 21 22 23 24 24 24 24 24 25 25 25 24 23 22 22
17 16 16 16 16 15 15 14 14 13 13 13 13 13 13 13 12 12 12 13 13 13 14 15 16 17 18 18 19 20 20 21 22 23 23 23 23 24 24 24 23 23 23 22
20 20 19 19 19 18 17 17 16 16 15 15 14 14 14 13 13 13 13 13 13 13 13 13 14 15 16 17 17 18 19 19 20 21 22 22 23 22 22 22 22 22 22 22
Wind_Direction
247 257 267 279 288 294 299 300 300 305 313 313 315 315 316 317 316 315 313 312 310 308 305 303 301 298 294 291 288 285 282 279 277 275 273 272 270 268 267 266 264 263 261 260
249 258 270 279 286 293 297 300 302 308 313 314 316 318 319 321 322 321 319 317 315 312 310 308 307 304 300 296 292 289 286 283 279 277 274 272 270 267 265 264 262 260 259 258
248 261 273 281 287 294 299 304 308 312 317 317 318 321 326 328 329 329 326 324 321 320 318 315 314 312 308 303 298 294 290 287 284 280 277 275 271 268 266 264 261 259 258 256
250 264 274 282 290 298 303 311 313 317 320 323 330 331 335 335 336 334 332 330 328 327 325 323 320 318 314 310 305 300 296 293 289 286 282 279 274 270 267 263 261 259 257 255
250 262 274 283 295 302 308 314 318 320 324 331 338 335 334 337 338 336 335 335 335 334 332 330 327 325 321 318 315 310 304 299 295 292 288 284 278 273 268 263 260 258 256 255
252 264 276 289 298 306 313 318 321 324 334 342 341 333 331 337 339 338 339 340 340 339 337 336 334 331 329 328 325 321 315 308 304 300 295 291 284 278 272 265 261 258 255 254
247 258 275 291 303 312 319 326 334 344 345 333 333 332 336 340 342 343 345 345 345 344 342 341 341 340 338 336 334 331 328 322 316 312 306 300 293 284 278 270 264 259 256 254
256 257 275 295 311 321 328 334 342 347 335 328 338 343 347 349 348 349 350 351 351 351 349 349 350 349 348 347 346 343 341 337 332 328 324 317 305 295 287 279 268 262 258 255
231 250 278 302 317 327 334 342 350 352 355 353 345 353 357 355 356 356 357 356 356 357 356 357 358 358 358 357 357 356 354 350 346 343 340 334 327 316 304 292 278 269 264 258
232 251 274 308 323 334 343 352 357 1 5 5 353 354 360 1 1 0 0 360 360 360 2 3 3 4 5 5 4 2 1 360 358 357 356 353 345 336 328 314 296 282 273 266
217 236 263 316 335 347 357 3 5 7 10 8 2 4 5 4 3 3 3 4 5 6 7 8 9 10 10 10 11 10 9 8 8 6 5 5 1 352 342 333 318 300 288 280
201 231 286 341 355 0 7 7 9 9 9 8 9 10 8 7 6 6 7 9 10 11 12 13 13 14 15 15 16 16 17 17 14 11 11 12 12 8 359 348 335 324 308 297
195 223 268 348 22 13 11 12 12 11 11 13 13 12 10 10 10 10 10 12 13 15 16 17 18 18 19 19 20 21 22 21 19 18 16 14 12 10 8 3 353 343 330 315
188 207 283 10 22 25 21 18 17 15 16 17 16 15 14 14 14 14 14 14 16 17 19 20 21 21 22 22 22 22 23 22 21 20 20 18 16 14 12 11 5 357 354 344
185 188 145 31 25 26 23 21 20 19 18 18 17 16 15 15 15 15 15 16 17 18 19 21 22 23 23 22 22 23 23 23 23 24 23 22 22 20 19 17 14 8 1 353
187 187 150 43 30 26 21 19 20 19 19 19 18 17 15 15 14 14 15 16 16 17 18 19 20 22 23 23 24 24 24 24 24 24 24 24 23 22 21 20 21 20 16 7
204 220 259 349 8 15 16 13 16 16 16 16 16 15 14 13 13 13 14 15 15 16 17 18 20 21 22 22 23 24 25 26 26 26 26 25 24 24 24 22 22 23 22 20
229 251 282 314 339 359 9 10 10 10 11 11 12 13 13 13 13 13 13 14 15 16 16 18 19 20 21 22 23 24 24 25 25 26 26 26 26 26 26 25 25 25 25 26
247 259 275 294 312 338 353 352 354 358 2 5 7 10 11 13 13 14 14 15 15 16 17 18 19 20 20 21 22 23 23 24 25 25 25 26 26 27 28 28 28 27 26 26
251 259 269 281 292 307 329 333 337 343 350 353 358 1 4 7 9 11 12 14 15 16 17 18 18 19 19 20 20 21 22 22 24 25 25 26 26 27 28 29 30 30 29 28
253 259 266 273 281 292 305 313 321 328 336 340 345 349 353 358 2 5 8 10 12 14 15 16 17 18 18 19 20 21 21 22 23 24 24 24 25 26 27 29 30 31 31 31
256 260 264 270 276 287 291 297 307 315 322 327 332 337 341 347 352 357 2 5 7 9 12 14 15 16 17 18 18 20 21 21 22 23 24 24 24 25 27 28 29 30 31 32
257 261 265 269 275 279 285 291 297 303 310 316 321 327 332 337 343 348 353 358 2 5 7 10 12 14 15 16 18 19 20 21 22 23 24 24 25 26 27 28 29 30 32 33
257 260 265 268 271 275 279 284 291 296 300 305 311 315 320 326 333 339 344 348 353 358 1 5 7 10 12 14 16 18 19 20 21 21 22 23 24 26 27 29 30 31 32 34
260 260 263 266 268 271 275 279 284 289 294 298 302 306 311 315 320 326 332 337 342 348 353 357 1 4 7 10 12 14 16 18 20 21 22 22 23 24 26 28 30 32 33 35
259 260 261 263 265 268 271 274 278 282 286 290 295 299 303 307 311 315 319 324 330 336 341 347 351 355 359 3 7 10 12 14 16 19 20 21 22 23 25 27 29 31 32 34
Height
5915 5917 5916 5916 5916 5916 5914 5913 5910 5906 5903 5899 5895 5891 5887 5883 5878 5873 5868 5863 5858 5854 5849 5845 5842 5838 5834 5831 5828 5826 5824 5823 5822 5821 5820 5820 5821 5821 5822 5824 5826 5828 5831 5833
5913 5914 5914 5914 5914 5914 5912 5910 5907 5903 5901 5896 5891 5887 5882 5878 5874 5868 5863 5858 5852 5848 5842 5838 5834 5830 5826 5823 5819 5817 5815 5813 5811 5811 5810 5810 5810 5810 5811 5813 5815 5817 5820 5823
5911 5912 5912 5912 5912 5911 5909 5907 5904 5901 5897 5893 5889 5883 5878 5873 5869 5864 5859 5853 5848 5842 5837 5832 5828 5823 5819 5815 5812 5809 5806 5804 5802 5801 5800 5799 5799 5800 5801 5802 5804 5806 5809 5812
5908 5910 5910 5910 5910 5909 5907 5905 5902 5898 5894 5889 5885 5879 5873 5868 5864 5860 5855 5849 5844 5838 5832 5827 5822 5818 5813 5808 5805 5801 5798 5796 5794 5792 5791 5790 5790 5790 5791 5792 5794 5796 5798 5801
5907 5908 5908 5908 5908 5906 5905 5902 5899 5895 5891 5887 5882 5878 5872 5867 5862 5857 5851 5845 5840 5834 5828 5823 5818 5813 5808 5803 5799 5795 5792 5789 5787 5785 5784 5782 5781 5781 5782 5783 5784 5786 5788 5791
5905 5906 5907 5906 5906 5904 5902 5900 5897 5893 5889 5885 5882 5879 5872 5867 5861 5855 5849 5843 5837 5831 5825 5820 5814 5809 5804 5799 5795 5791 5787 5784 5782 5780 5777 5776 5774 5773 5774 5774 5776 5777 5779 5782
5904 5905 5905 5905 5904 5902 5900 5898 5895 5890 5887 5885 5881 5878 5874 5867 5861 5855 5848 5842 5836 5830 5824 5818 5812 5806 5801 5796 5792 5788 5784 5780 5777 5775 5772 5770 5769 5767 5767 5767 5768 5769 5771 5773
5903 5904 5904 5903 5902 5901 5899 5897 5894 5891 5889 5885 5880 5876 5873 5867 5861 5854 5848 5841 5835 5829 5823 5817 5811 5805 5800 5795 5790 5786 5782 5778 5775 5772 5769 5766 5764 5763 5762 5762 5762 5763 5764 5766
5902 5902 5903 5902 5901 5900 5897 5895 5893 5890 5887 5884 5879 5875 5871 5866 5860 5854 5847 5841 5835 5828 5822 5816 5810 5805 5799 5794 5789 5785 5781 5777 5774 5770 5767 5764 5762 5760 5759 5757 5757 5757 5758 5759
5901 5902 5902 5901 5900 5899 5897 5894 5892 5889 5886 5883 5880 5874 5870 5865 5860 5854 5848 5842 5835 5829 5823 5817 5811 5805 5800 5795 5790 5785 5781 5777 5773 5770 5766 5763 5760 5758 5756 5755 5754 5754 5754 5754
5900 5901 5902 5901 5899 5898 5896 5894 5891 5889 5885 5882 5879 5877 5871 5866 5861 5855 5849 5843 5837 5830 5824 5818 5812 5807 5801 5796 5791 5786 5782 5778 5774 5770 5766 5763 5760 5757 5755 5753 5752 5751 5751 5751
5900 5901 5900 5900 5898 5897 5895 5893 5891 5889 5886 5882 5879 5879 5871 5867 5861 5856 5850 5844 5838 5832 5826 5820 5814 5809 5803 5798 5793 5788 5783 5779 5775 5771 5767 5764 5760 5758 5755 5753 5751 5750 5749 5749
5899 5900 5900 5899 5900 5898 5895 5893 5891 5889 5886 5883 5879 5879 5872 5867 5862 5857 5852 5846 5840 5834 5828 5823 5817 5811 5806 5801 5796 5791 5786 5782 5777 5773 5769 5765 5762 5759 5756 5753 5751 5750 5749 5748
5899 5899 5900 5899 5898 5896 5895 5893 5891 5889 5886 5883 5880 5877 5873 5868 5864 5859 5854 5848 5843 5837 5831 5826 5820 5814 5809 5804 5799 5794 5789 5784 5780 5775 5771 5767 5764 5760 5757 5754 5752 5750 5749 5748
5899 5899 5898 5898 5897 5896 5895 5893 5891 5889 5887 5884 5881 5877 5874 5870 5865 5861 5856 5850 5845 5840 5834 5829 5823 5818 5813 5807 5802 5797 5792 5787 5783 5778 5774 5770 5766 5762 5758 5755 5753 5751 5749 5747
5898 5899 5898 5898 5897 5896 5895 5893 5892 5889 5887 5885 5882 5879 5875 5871 5867 5862 5858 5853 5848 5843 5837 5832 5827 5821 5816 5811 5806 5801 5796 5791 5786 5782 5777 5772 5768 5764 5760 5757 5754 5751 5749 5748
5898 5898 5898 5897 5897 5896 5895 5894 5892 5890 5888 5885 5883 5880 5876 5872 5868 5864 5860 5855 5850 5845 5840 5835 5830 5825 5820 5815 5809 5804 5799 5795 5790 5785 5780 5775 5771 5767 5763 5759 5756 5753 5751 5749
5898 5897 5897 5897 5897 5896 5897 5893 5892 5890 5888 5886 5883 5880 5877 5874 5870 5866 5861 5857 5852 5848 5843 5838 5833 5828 5823 5818 5813 5808 5803 5798 5793 5789 5784 5779 5774 5770 5766 5762 5758 5755 5753 5750
5896 5897 5897 5896 5895 5895 5895 5893 5891 5890 5888 5886 5884 5881 5878 5874 5871 5867 5863 5859 5855 5850 5846 5841 5836 5832 5827 5822 5817 5812 5807 5802 5797 5792 5787 5783 5778 5773 5769 5765 5761 5758 5755 5752
5895 5895 5896 5895 5894 5894 5895 5893 5891 5890 5888 5886 5883 5881 5878 5875 5873 5870 5865 5861 5856 5852 5848 5844 5839 5835 5830 5825 5820 5815 5811 5806 5801 5796 5791 5787 5782 5777 5773 5769 5765 5761 5758 5755
5894 5894 5894 5893 5893 5893 5893 5891 5890 5890 5889 5886 5883 5881 5878 5876 5873 5870 5866 5862 5858 5854 5850 5846 5842 5837 5833 5828 5824 5819 5814 5809 5805 5800 5795 5790 5786 5781 5777 5773 5769 5765 5761 5758
5891 5892 5892 5892 5892 5893 5891 5890 5889 5889 5886 5884 5882 5880 5878 5876 5873 5870 5867 5863 5860 5856 5852 5848 5844 5840 5836 5831 5827 5822 5818 5813 5808 5804 5799 5795 5790 5786 5781 5777 5773 5769 5765 5762
5889 5890 5889 5890 5891 5890 5888 5888 5887 5886 5884 5883 5881 5879 5877 5875 5873 5870 5867 5864 5861 5857 5854 5850 5846 5842 5838 5834 5830 5826 5821 5817 5812 5808 5803 5799 5794 5790 5785 5781 5777 5773 5769 5766
5886 5886 5886 5887 5887 5886 5886 5885 5884 5883 5882 5881 5879 5878 5876 5874 5872 5869 5867 5864 5861 5858 5855 5851 5848 5844 5840 5837 5833 5829 5824 5820 5816 5811 5807 5803 5798 5794 5790 5786 5782 5778 5774 5770
5882 5883 5883 5883 5883 5883 5883 5882 5882 5881 5880 5878 5877 5876 5874 5872 5870 5868 5866 5864 5861 5858 5855 5852 5849 5846 5842 5839 5835 5831 5827 5823 5819 5815 5811 5807 5802 5798 5794 5790 5786 5782 5779 5775
5877 5878 5878 5879 5879 5879 5879 5878 5878 5877 5876 5875 5874 5873 5871 5870 5868 5866 5864 5862 5860 5858 5855 5852 5849 5846 5843 5840 5837 5833 5829 5826 5822 5818 5814 5810 5806 5802 5798 5794 5791 5787 5783 5780